Vorticity
5 11 9 5 5 3 -1 3 8 -4 19 27 2 0 -5 7 1 2 0 6 5 8 6 7 5 5 5 6 6 5 6 7 3 2 2 3 3 4 4 4 3 4 5 6 3 1 1 1 1
9 7 3 6 7 -6 5 20 -0 13 4 8 6 2 4 9 4 -0 -1 3 9 6 7 6 7 5 5 6 6 6 5 6 7 4 3 2 3 4 5 4 3 3 4 2 1 1 2 2 1
13 6 3 2 10 5 -2 -3 20 2 18 4 6 2 3 3 3 1 -3 7 4 5 6 6 6 5 5 5 5 6 5 4 5 6 5 4 3 3 4 5 3 3 3 1 1 2 1 1 1
28 12 -0 15 2 4 3 -1 0 18 1 5 8 5 2 1 2 1 5 7 7 6 5 7 6 6 5 5 6 6 7 7 4 4 6 7 4 3 3 4 4 3 3 1 1 1 1 1 1
-9 24 19 10 8 -8 0 12 -9 9 11 3 8 5 3 2 1 1 1 3 4 7 6 5 5 5 6 7 7 6 6 7 7 6 6 5 6 6 4 3 3 3 2 2 1 1 1 1 2
2 2 20 21 3 2 21 19 6 -3 11 3 4 3 2 4 5 4 2 0 6 6 8 6 5 5 6 5 6 7 8 7 7 8 7 7 6 6 7 5 3 3 2 2 1 1 2 2 4
3 -6 18 27 19 9 1 13 -9 10 7 9 5 6 3 6 4 2 -1 5 9 11 8 4 4 4 5 3 8 7 5 1 0 4 4 6 7 7 8 9 8 6 4 3 2 2 3 4 8
5 4 -1 32 4 2 2 37 0 -1 6 12 1 7 5 2 1 1 4 3 8 6 9 3 5 4 4 5 1 -1 -1 1 5 6 5 6 8 10 10 9 9 9 9 8 7 6 6 8 10
9 -1 -0 23 12 10 -16 23 2 -2 10 11 3 5 2 4 -0 1 3 -2 8 13 5 5 8 3 2 3 4 5 6 1 2 0 1 5 4 5 8 10 10 10 9 9 7 8 9 10 4
7 4 0 -3 32 21 11 6 9 8 3 10 5 7 9 2 2 5 2 -2 7 5 5 1 2 4 5 5 4 3 2 2 3 2 0 -0 3 5 7 8 8 8 8 9 9 9 6 4 2
7 6 8 6 -4 5 21 14 -12 15 3 7 12 8 10 7 1 2 0 2 18 1 5 10 2 -1 -1 0 -3 0 7 4 3 3 3 5 8 7 8 5 6 8 9 8 6 4 5 3 2
9 4 8 8 1 -3 0 15 17 5 22 10 10 10 6 6 4 0 6 6 1 5 1 5 13 5 5 -3 -3 2 15 8 5 6 8 9 8 5 5 6 7 8 8 5 5 5 3 3 5
7 5 8 8 9 5 7 8 19 27 -2 2 3 12 7 5 -1 -3 4 3 2 -2 -3 3 7 5 3 5 -0 7 22 11 9 9 6 2 4 6 6 6 7 5 5 5 4 3 3 2 2
2 6 5 10 9 5 0 7 9 19 28 11 6 11 2 9 18 2 -4 1 -0 -1 2 1 1 1 3 5 -1 4 14 2 3 3 3 5 5 5 4 6 6 7 6 4 4 6 4 4 6
10 9 8 4 8 9 3 -3 25 33 -11 7 7 10 4 10 2 -16 -7 5 -2 1 1 -2 7 5 1 4 8 12 11 2 -1 1 -1 -1 3 5 5 5 3 6 6 7 5 6 8 8 6
14 7 11 -1 10 11 5 3 19 27 43 6 5 8 8 -3 4 -7 25 -2 -1 1 -2 5 4 -3 19 7 8 13 9 2 5 11 10 10 5 3 1 11 8 9 10 9 8 7 8 11 12
16 16 11 6 7 7 6 -0 19 5 2 43 -0 0 1 7 6 8 -7 -4 2 2 4 12 10 14 18 15 5 9 4 3 6 13 6 6 9 8 7 5 4 -0 7 5 5 5 10 11 11
17 21 8 12 15 9 7 10 7 19 39 11 -0 -2 4 1 0 -2 2 -3 -1 -1 5 -2 9 21 20 13 6 4 5 9 8 6 9 5 6 8 5 4 5 9 9 4 11 17 18 9 11
11 27 43 10 25 18 9 11 5 4 13 47 11 7 4 8 6 5 6 7 -0 -0 2 -2 2 32 16 5 6 11 10 7 7 8 6 9 11 9 7 9 9 5 9 14 9 3 7 8 15
15 -11 10 22 8 30 16 12 9 5 6 16 54 4 5 15 8 10 -0 6 9 9 3 7 49 11 5 4 11 11 8 4 8 5 7 9 9 7 8 9 7 13 5 10 15 15 17 9 10
24 8 -11 5 3 25 16 15 11 7 9 3 11 8 9 2 -3 2 9 1 14 10 1 44 1 4 2 8 7 7 5 5 5 10 10 8 9 8 8 10 12 5 15 8 1 2 1 3 11
26 12 -15 10 5 5 6 15 11 9 8 4 19 46 -6 5 6 -1 -2 6 2 14 21 38 18 4 5 6 6 2 3 5 11 8 7 10 13 15 9 9 9 7 6 4 6 9 11 12 13
27 9 20 -6 13 11 28 -2 43 8 13 6 27 59 -11 2 6 10 13 16 -10 11 33 18 34 6 5 5 3 1 5 10 8 7 10 11 10 10 8 6 7 8 5 7 6 8 15 12 9
27 14 17 3 10 10 -1 19 -28 30 10 4 9 59 -26 14 -12 10 8 -1 -6 1 5 8 36 -2 -0 6 4 6 12 8 6 8 8 8 6 6 5 6 6 5 6 6 8 12 11 8 6
28 7 10 10 12 11 10 15 31 -4 20 13 18 45 23 -4 -3 19 5 -4 -6 5 7 21 1 5 4 4 6 9 8 5 7 8 7 6 5 6 7 7 7 8 7 7 13 10 7 7 6
21 12 5 8 7 9 15 1 46 -4 18 24 10 13 24 6 37 3 2 11 -9 4 7 6 12 2 5 3 5 9 6 5 9 8 4 5 6 7 9 9 8 8 8 8 10 7 6 6 7
22 8 11 9 6 9 8 15 -14 -10 14 31 9 11 18 18 10 12 5 -2 -1 12 10 8 1 5 8 15 8 6 6 7 6 8 7 7 7 9 8 8 8 8 8 10 8 7 6 7 7
23 3 2 7 17 14 12 14 15 18 -7 3 13 9 18 12 8 8 14 4 6 16 -1 6 7 6 7 5 7 7 5 7 6 8 7 7 8 9 9 9 7 8 9 10 8 7 7 8 8
12 29 -10 4 22 9 12 7 -2 25 6 -9 18 8 9 10 11 9 3 4 13 7 7 5 2 8 7 9 8 5 2 3 6 9 8 6 7 9 8 7 7 7 8 9 9 8 7 8 9
-4 30 4 5 -6 -1 21 17 18 8 36 19 11 13 12 10 15 14 6 3 7 8 16 7 4 12 5 5 2 4 4 4 7 9 7 5 8 8 7 7 7 6 7 9 8 8 10 10 12
Height
5821 5825 5828 5832 5837 5837 5840 5849 5855 5853 5853 5847 5852 5853 5853 5851 5854 5859 5856 5856 5856 5857 5856 5856 5855 5855 5856 5856 5857 5858 5859 5859 5860 5859 5857 5855 5854 5853 5854 5854 5855 5856 5856 5857 5857 5858 5858 5858 5857
5812 5818 5821 5826 5828 5832 5841 5845 5850 5847 5845 5844 5849 5851 5851 5849 5852 5854 5855 5855 5856 5856 5855 5855 5854 5854 5855 5854 5855 5857 5858 5859 5859 5859 5857 5856 5854 5854 5854 5854 5855 5856 5856 5857 5857 5858 5858 5857 5858
5804 5810 5814 5817 5820 5824 5833 5844 5842 5840 5834 5842 5846 5847 5845 5848 5849 5851 5853 5854 5854 5854 5855 5854 5854 5854 5854 5854 5854 5855 5856 5857 5858 5858 5857 5856 5855 5855 5853 5854 5854 5855 5855 5856 5856 5857 5857 5856 5857
5798 5802 5805 5806 5811 5819 5823 5828 5827 5827 5835 5837 5841 5842 5845 5845 5846 5849 5851 5852 5853 5853 5853 5854 5853 5853 5853 5854 5854 5855 5855 5857 5857 5857 5857 5856 5856 5856 5855 5855 5855 5855 5855 5855 5856 5856 5856 5856 5856
5792 5794 5794 5797 5803 5810 5815 5820 5815 5825 5830 5833 5836 5838 5840 5842 5844 5846 5848 5850 5851 5852 5852 5853 5852 5852 5852 5854 5855 5855 5855 5856 5856 5856 5856 5856 5856 5856 5856 5855 5855 5856 5856 5856 5856 5856 5856 5856 5855
5785 5787 5786 5788 5797 5804 5810 5806 5812 5819 5824 5828 5833 5832 5836 5838 5840 5843 5846 5848 5849 5850 5851 5851 5851 5852 5853 5854 5855 5855 5855 5856 5856 5856 5856 5856 5855 5856 5856 5857 5857 5856 5856 5856 5856 5857 5857 5856 5856
5777 5778 5778 5782 5791 5798 5803 5801 5806 5813 5819 5824 5827 5829 5831 5834 5836 5840 5843 5845 5847 5848 5849 5849 5850 5850 5852 5853 5855 5855 5856 5857 5856 5856 5856 5856 5856 5856 5857 5857 5857 5857 5856 5856 5856 5855 5855 5855 5855
5770 5770 5769 5772 5781 5790 5796 5790 5797 5807 5813 5818 5819 5821 5827 5831 5831 5836 5839 5842 5845 5846 5846 5846 5847 5849 5850 5852 5854 5855 5856 5856 5857 5857 5857 5858 5858 5858 5858 5857 5857 5856 5856 5855 5855 5854 5854 5854 5853
5762 5759 5759 5766 5772 5781 5787 5781 5789 5799 5806 5808 5813 5815 5818 5824 5826 5831 5836 5839 5842 5843 5845 5844 5846 5847 5849 5851 5852 5853 5855 5855 5856 5856 5856 5856 5857 5856 5855 5854 5854 5854 5854 5854 5853 5853 5853 5852 5851
5751 5750 5755 5763 5763 5770 5775 5772 5783 5789 5795 5803 5807 5810 5816 5818 5822 5827 5832 5836 5839 5840 5842 5843 5844 5846 5847 5849 5850 5851 5852 5853 5853 5854 5855 5855 5854 5854 5854 5853 5853 5853 5853 5852 5852 5852 5852 5851 5850
5742 5741 5750 5753 5757 5758 5763 5762 5774 5779 5787 5794 5801 5804 5811 5813 5817 5822 5827 5830 5833 5836 5839 5839 5841 5843 5845 5847 5848 5849 5850 5850 5851 5851 5852 5852 5853 5852 5851 5851 5851 5851 5851 5851 5850 5850 5850 5848 5847
5728 5733 5739 5745 5747 5750 5754 5759 5764 5770 5781 5785 5791 5797 5803 5806 5812 5818 5822 5825 5827 5831 5833 5835 5837 5839 5842 5844 5845 5846 5847 5847 5847 5848 5849 5849 5849 5850 5849 5849 5849 5849 5849 5848 5847 5847 5846 5845 5843
5716 5723 5726 5732 5738 5741 5746 5748 5754 5760 5772 5772 5782 5790 5794 5801 5806 5811 5814 5818 5822 5825 5827 5828 5831 5833 5838 5840 5841 5842 5843 5843 5844 5845 5846 5846 5847 5847 5846 5846 5847 5846 5845 5846 5845 5843 5842 5841 5839
5705 5708 5713 5720 5726 5731 5737 5739 5742 5748 5759 5758 5771 5782 5789 5796 5802 5805 5806 5812 5816 5819 5821 5823 5826 5829 5832 5835 5837 5838 5839 5840 5841 5842 5843 5844 5844 5844 5844 5844 5844 5844 5844 5843 5841 5840 5839 5838 5836
5689 5691 5700 5706 5715 5720 5727 5727 5728 5740 5748 5749 5765 5773 5781 5784 5793 5796 5800 5805 5810 5812 5815 5818 5821 5824 5827 5830 5833 5835 5836 5837 5839 5839 5840 5841 5842 5842 5842 5842 5842 5842 5842 5841 5839 5837 5836 5833 5831
5672 5677 5684 5697 5704 5712 5716 5718 5726 5732 5735 5742 5756 5763 5772 5779 5786 5791 5794 5800 5804 5806 5812 5813 5815 5818 5820 5825 5828 5830 5832 5834 5835 5836 5837 5838 5838 5839 5839 5839 5840 5838 5838 5836 5835 5833 5831 5829 5827
5657 5663 5673 5684 5692 5701 5704 5711 5718 5723 5726 5735 5745 5754 5763 5770 5777 5783 5790 5795 5800 5801 5807 5808 5809 5812 5814 5819 5822 5826 5828 5829 5831 5833 5834 5834 5835 5835 5835 5835 5835 5835 5834 5832 5831 5829 5827 5825 5822
5649 5654 5663 5672 5683 5688 5694 5702 5709 5709 5717 5727 5737 5746 5753 5761 5770 5779 5785 5789 5794 5798 5798 5801 5802 5806 5808 5812 5817 5821 5824 5826 5827 5829 5830 5831 5831 5831 5831 5831 5831 5831 5829 5829 5827 5825 5823 5821 5818
5640 5648 5654 5664 5672 5676 5684 5693 5698 5705 5709 5717 5727 5737 5743 5754 5763 5770 5775 5781 5787 5792 5792 5794 5797 5798 5802 5807 5813 5817 5820 5822 5823 5824 5825 5826 5827 5827 5827 5827 5826 5826 5826 5824 5823 5822 5820 5818 5816
5623 5631 5645 5656 5667 5667 5674 5682 5688 5695 5702 5706 5719 5729 5737 5746 5752 5760 5767 5776 5783 5785 5786 5787 5790 5794 5798 5803 5809 5814 5816 5817 5819 5819 5821 5821 5822 5823 5823 5822 5823 5823 5823 5821 5819 5818 5816 5815 5814
5609 5619 5633 5648 5656 5660 5664 5671 5676 5685 5692 5700 5707 5720 5731 5738 5744 5753 5763 5771 5775 5779 5780 5782 5785 5789 5794 5800 5807 5809 5811 5813 5814 5814 5816 5817 5817 5820 5819 5819 5819 5820 5820 5817 5816 5816 5814 5812 5811
5596 5610 5623 5638 5645 5647 5654 5662 5668 5675 5681 5690 5700 5711 5720 5730 5737 5746 5758 5763 5770 5772 5773 5773 5776 5784 5791 5797 5802 5805 5807 5808 5809 5810 5812 5813 5814 5816 5816 5817 5817 5818 5817 5815 5813 5812 5810 5809 5808
5587 5602 5613 5627 5637 5643 5644 5656 5663 5667 5670 5682 5691 5698 5712 5721 5729 5741 5751 5758 5763 5765 5768 5771 5770 5780 5788 5793 5797 5800 5802 5803 5805 5806 5808 5810 5811 5812 5814 5813 5814 5815 5814 5811 5809 5809 5807 5806 5806
5580 5594 5608 5619 5629 5631 5639 5646 5656 5657 5666 5679 5686 5695 5705 5711 5724 5736 5742 5749 5755 5759 5765 5767 5772 5778 5784 5789 5793 5796 5798 5799 5801 5803 5805 5807 5809 5810 5811 5811 5812 5811 5810 5809 5807 5805 5804 5803 5803
5572 5585 5598 5607 5614 5622 5634 5642 5650 5662 5663 5673 5680 5688 5699 5709 5719 5728 5734 5744 5749 5755 5759 5765 5770 5775 5779 5783 5788 5791 5793 5796 5798 5800 5802 5804 5806 5807 5808 5809 5808 5807 5806 5806 5804 5803 5803 5801 5800
5566 5577 5588 5598 5609 5621 5632 5636 5644 5660 5661 5669 5675 5683 5692 5701 5713 5722 5729 5738 5743 5749 5753 5760 5763 5769 5774 5779 5783 5787 5789 5793 5795 5797 5800 5802 5803 5804 5805 5806 5805 5804 5803 5802 5802 5800 5800 5799 5798
5562 5574 5592 5603 5613 5623 5625 5636 5646 5653 5660 5660 5669 5675 5681 5694 5706 5714 5722 5730 5738 5744 5747 5754 5758 5765 5770 5774 5779 5783 5786 5789 5792 5796 5797 5798 5799 5801 5802 5802 5802 5801 5800 5799 5798 5798 5797 5795 5794
5557 5575 5585 5598 5608 5616 5624 5633 5637 5646 5653 5658 5666 5672 5681 5690 5699 5707 5717 5726 5734 5740 5745 5750 5755 5760 5765 5770 5775 5779 5782 5785 5789 5793 5794 5795 5796 5798 5799 5799 5798 5797 5796 5796 5795 5794 5793 5792 5790
5551 5568 5582 5599 5608 5614 5624 5632 5638 5641 5648 5656 5664 5671 5678 5685 5692 5700 5711 5720 5728 5734 5740 5744 5750 5756 5761 5765 5770 5774 5779 5782 5786 5789 5790 5791 5792 5794 5794 5794 5794 5793 5792 5792 5791 5790 5789 5788 5787
5558 5569 5580 5589 5599 5612 5623 5633 5629 5635 5644 5652 5660 5667 5674 5682 5689 5698 5707 5715 5722 5729 5735 5739 5745 5752 5756 5760 5765 5771 5775 5778 5782 5785 5786 5788 5789 5790 5790 5790 5790 5789 5788 5788 5787 5786 5785 5784 5783